Location: Young's Pond
(41.2695°N, 72.7766°W)
Time: 04:22:32
(UTC-04:00)

CZ-4B R/B - Visible Passes

Search period start: 26 May 2018 00:00
Search period end: 05 June 2018 00:00
Orbit: 398 x 481 km, 97.5° (Epoch: 25 May)

Date Brightness Start Highest point End Pass type
(mag) Time Alt. Az. Time Alt. Az. Time Alt. Az.
26 May 2.5 02:15:56 42° N 02:15:56 42° N 02:18:18 10° NNW visible
27 May 3.5 01:37:27 24° NE 01:37:27 24° NE 01:39:48 10° NNE visible
27 May 3.8 03:10:53 14° WNW 03:10:53 14° WNW 03:11:46 10° NW visible
28 May 2.6 02:32:25 35° NW 02:32:25 35° NW 02:34:35 10° NNW visible
29 May 2.9 01:53:56 35° NE 01:53:56 35° NE 01:56:25 10° N visible
30 May 4.1 01:15:26 14° ENE 01:15:26 14° ENE 01:17:11 10° NE visible
30 May 3.1 02:48:52 24° WNW 02:48:52 24° WNW 02:50:42 10° NNW visible
31 May 2.4 02:10:22 46° N 02:10:22 46° N 02:12:52 10° N visible
01 Jun 3.6 01:31:53 21° ENE 01:31:53 21° ENE 01:34:10 10° NNE visible
01 Jun 3.5 03:05:19 16° WNW 03:05:19 16° WNW 03:06:34 10° NW visible
02 Jun 2.3 02:26:49 42° NW 02:26:49 42° NW 02:29:09 10° NNW visible
03 Jun 3.0 01:48:19 31° NE 01:48:19 31° NE 01:50:49 10° N visible
03 Jun 3.9 03:21:45 10° WNW 03:21:45 10° WNW 03:21:54 10° WNW visible
04 Jun 4.3 01:09:48 11° ENE 01:09:59 11° ENE 01:11:01 10° NE visible
04 Jun 2.7 02:43:14 29° WNW 02:43:14 29° WNW 02:45:16 10° NNW visible
